Regional Weather Roundup
Issued by NWS Northern Indiana

Home | Current Version | Previous Version | Graphics & Text | Print | Product List | Glossary On
Versions: 1 2 3 4 5 6 7 8 9 10 11 12 13 14 15 16 17 18 19 20 21 22 23 24 25 26 27 28 29 30 31 32 33 34 35 36 37 38 39 40 41 42 43 44 45 46 47 48 49 50
000
ASUS43 KIWX 310800
RWRIWX

KIWX WEATHER ROUNDUP
NATIONAL WEATHER SERVICE NORTHERN INDIANA
400 AM EDT THU JUL 31 2014

NOTE: "FAIR" INDICATES FEW OR NO CLOUDS BELOW 12,000 FEET WITH NO
SIGNIFICANT WEATHER AND/OR OBSTRUCTIONS TO VISIBILITY.

* THESE STATIONS ARE NOT UNDER NWS QUALITY CONTROL. THEY ALSO MAY NOT
  REPORT WEATHER SUCH AS PRECIPITATION OR FOG.

INZ001>027-310900-
NORTHERN INDIANA

CITY           SKY/WX    TMP DP  RH WIND       PRES   REMARKS
VALPARAISO     CLEAR     56  55  97 CALM      30.04F FOG
KNOX*            N/A     52  50  94 CALM      30.03S VSB<1/4
SOUTH BEND     CLEAR     56  53  90 S5        30.04S
GOSHEN         CLEAR     55  53  93 CALM      30.04S FOG
MONTICELLO*    CLEAR     57  57  99 CALM      30.03F FOG
WARSAW*        CLEAR     55  55 100 CALM      30.04S FOG
ANGOLA*        CLOUDY    52  52 100 CALM      30.03F VSB 0
FORT WAYNE     PTCLDY    58  56  93 W3        30.04F
PERU/GRISSOM   CLEAR     58  57  99 CALM      30.04S

$$
INZ028>050-310900-
CENTRAL INDIANA

CITY           SKY/WX    TMP DP  RH WIND       PRES   REMARKS
LAFAYETTE      FOG       57  57 100 CALM      30.04S VSB 1/2
KOKOMO*        CLEAR     55  54  94 CALM      30.05S
MUNCIE*        CLEAR     61  57  87 CALM      30.05S
INDIANAPOLIS   PTCLDY    61  60  97 W7        30.05S

$$
MIZ043>046-050>051-056>058-064>065-071>073-077>080-310900-
SOUTHWEST LOWER MICHIGAN

CITY           SKY/WX    TMP DP  RH WIND       PRES   REMARKS
BATTLE CREEK   CLEAR     56  51  84 SW3       30.02F
BENTON HARBOR  CLEAR     53  52  96 CALM      30.02S FOG
COLDWATER*     CLEAR     54  53  96 CALM      30.02F FOG
HILLSDALE*     CLEAR     54  53  99 CALM      30.02S
HOLLAND        PTCLDY    59  51  75 SW5       30.01S
GRAND RAPIDS   MOCLDY    56  52  86 CALM      30.00F
KALAMAZOO      CLEAR     55  51  86 S3        30.02F
STURGIS*       FOG       52  52 100 CALM      30.03S VSB 1/4
THREE RIVERS*  FAIR      54  54 100 CALM      30.03F FOG

$$
OHZ001>008-015>018-024>025-310900-
NORTHWEST OHIO

CITY           SKY/WX    TMP DP  RH WIND       PRES   REMARKS
DEFIANCE       CLEAR     56  53  90 CALM      30.03S
FINDLAY        CLEAR     61  56  83 SW6       30.02S
TOLEDO EXPRESS CLEAR     55  52  89 W3        30.01S
TOLEDO METCALF CLEAR     56  53  90 W5        30.01F
LIMA           MOCLDY    63  60  90 CALM      30.04S

$$
&&


USA.gov is the U.S. government's official web portal to all federal, state and local government web resources and services.